When you browse on this site, cookies collect data to enhance your experience and personalize the content and advertising you see.
Visit our Privacy Policy to learn more. By continuing to use the site, you agree to this use of cookies and data.
  • In Schweiz
  • Länderverzeichnis
  • Für 7 Tage
  • Wassertemperatur
  • Satellitenkarten
  • Wetterkarte
  • Widgets
  • user-avatar
    Anmelden

    Stündliche Wetter Wien

    Heute, 25 Juni, Dienstag

    Zeit Temperatur Niederschläge Wind Luftdruck Luftfeuchtigkeit
    00:00 +22°C° 0 mm 1 m/S 749 mmHg 82%
    01:00 +19°C° 0 mm 0 m/S 749 mmHg 83%
    02:00 +19°C° 0 mm 0 m/S 749 mmHg 84%
    03:00 +19°C° 0 mm 0 m/S 748 mmHg 85%
    04:00 +20°C° 0 mm 1 m/S 748 mmHg 86%
    05:00 +22°C° 0 mm 1 m/S 748 mmHg 82%
    06:00 +23°C° 0 mm 1 m/S 749 mmHg 78%
    07:00 +24°C° 0 mm 2 m/S 749 mmHg 74%
    08:00 +26°C° 0 mm 3 m/S 749 mmHg 69%
    09:00 +27°C° 0 mm 3 m/S 749 mmHg 65%
    10:00 +28°C° 0 mm 4 m/S 749 mmHg 60%
    11:00 +29°C° 0 mm 4 m/S 749 mmHg 57%
    12:00 +30°C° 0 mm 5 m/S 749 mmHg 54%
    13:00 +33°C° 0 mm 4 m/S 749 mmHg 51%
    14:00 +33°C° 0 mm 4 m/S 749 mmHg 51%
    15:00 +33°C° 0 mm 4 m/S 749 mmHg 52%
    16:00 +33°C° 0 mm 4 m/S 749 mmHg 52%
    17:00 +32°C° 0 mm 4 m/S 749 mmHg 56%
    18:00 +30°C° 0 mm 4 m/S 749 mmHg 61%
    19:00 +29°C° 0 mm 3 m/S 749 mmHg 65%
    20:00 +28°C° 0 mm 3 m/S 750 mmHg 67%
    21:00 +27°C° 0 mm 3 m/S 750 mmHg 70%
    22:00 +26°C° 0 mm 3 m/S 750 mmHg 72%
    23:00 +25°C° 0 mm 2 m/S 750 mmHg 75%

    Morgen, 26 Juni, Mittwoch

    Zeit Temperatur Niederschläge Wind Luftdruck Luftfeuchtigkeit
    00:00 +24°C° 0 mm 2 m/S 750 mmHg 78%
    01:00 +24°C° 0 mm 2 m/S 750 mmHg 81%
    02:00 +23°C° 0 mm 2 m/S 750 mmHg 83%
    03:00 +23°C° 0 mm 2 m/S 750 mmHg 85%
    04:00 +21°C° 0 mm 2 m/S 750 mmHg 86%
    05:00 +24°C° 0 mm 2 m/S 750 mmHg 82%
    06:00 +25°C° 0 mm 2 m/S 750 mmHg 77%
    07:00 +26°C° 0 mm 2 m/S 750 mmHg 72%
    08:00 +28°C° 0 mm 2 m/S 750 mmHg 66%
    09:00 +30°C° 0 mm 2 m/S 750 mmHg 60%
    10:00 +31°C° 0 mm 3 m/S 750 mmHg 54%
    11:00 +34°C° 0 mm 3 m/S 750 mmHg 51%
    12:00 +35°C° 0 mm 3 m/S 750 mmHg 47%
    13:00 +36°C° 0 mm 2 m/S 750 mmHg 43%
    14:00 +36°C° 0 mm 2 m/S 749 mmHg 43%
    15:00 +36°C° 0 mm 2 m/S 749 mmHg 43%
    16:00 +36°C° 0 mm 2 m/S 748 mmHg 43%
    17:00 +34°C° 0 mm 2 m/S 748 mmHg 50%
    18:00 +32°C° 0 mm 2 m/S 748 mmHg 56%
    19:00 +31°C° 0 mm 1 m/S 748 mmHg 62%
    20:00 +29°C° 0 mm 1 m/S 748 mmHg 65%
    21:00 +28°C° 0 mm 1 m/S 748 mmHg 68%
    22:00 +27°C° 0 mm 1 m/S 748 mmHg 71%
    23:00 +27°C° 0 mm 1 m/S 748 mmHg 70%

    übermorgen, 27 Juni, Donnerstag

    Zeit Temperatur Niederschläge Wind Luftdruck Luftfeuchtigkeit
    00:00 +26°C° 0 mm 1 m/S 748 mmHg 70%
    01:00 +26°C° 0 mm 1 m/S 748 mmHg 70%
    02:00 +26°C° 0 mm 1 m/S 747 mmHg 69%
    03:00 +25°C° 0 mm 1 m/S 747 mmHg 69%
    04:00 +25°C° 0 mm 1 m/S 747 mmHg 69%
    05:00 +26°C° 0 mm 2 m/S 747 mmHg 67%
    06:00 +27°C° 0 mm 3 m/S 746 mmHg 66%
    07:00 +28°C° 0 mm 4 m/S 746 mmHg 65%
    08:00 +29°C° 0 mm 4 m/S 746 mmHg 64%
    09:00 +30°C° 0 mm 5 m/S 746 mmHg 62%
    10:00 +30°C° 0 mm 5 m/S 746 mmHg 61%
    11:00 +30°C° 0.1 mm 5 m/S 746 mmHg 60%
    12:00 +30°C° 0.1 mm 6 m/S 746 mmHg 60%
    13:00 +30°C° 0.1 mm 6 m/S 746 mmHg 59%
    14:00 +30°C° 0.4 mm 6 m/S 746 mmHg 57%
    15:00 +30°C° 0.4 mm 6 m/S 746 mmHg 54%
    16:00 +30°C° 0.4 mm 6 m/S 746 mmHg 52%
    17:00 +28°C° 0 mm 6 m/S 746 mmHg 50%
    18:00 +26°C° 0 mm 6 m/S 746 mmHg 49%
    19:00 +23°C° 0 mm 5 m/S 746 mmHg 48%
    20:00 +22°C° 0 mm 5 m/S 746 mmHg 50%
    21:00 +21°C° 0 mm 4 m/S 747 mmHg 52%
    22:00 +20°C° 0 mm 4 m/S 747 mmHg 54%
    23:00 +19°C° 0 mm 4 m/S 747 mmHg 56%

    28 Juni, Freitag

    Zeit Temperatur Niederschläge Wind Luftdruck Luftfeuchtigkeit
    00:00 +18°C° 0 mm 4 m/S 747 mmHg 58%
    01:00 +18°C° 0 mm 4 m/S 747 mmHg 60%
    02:00 +17°C° 0 mm 4 m/S 747 mmHg 63%
    03:00 +17°C° 0 mm 4 m/S 747 mmHg 66%
    04:00 +15°C° 0 mm 4 m/S 747 mmHg 69%
    05:00 +17°C° 0 mm 4 m/S 747 mmHg 68%
    06:00 +18°C° 0 mm 4 m/S 747 mmHg 67%
    07:00 +19°C° 0 mm 4 m/S 747 mmHg 66%
    08:00 +20°C° 0 mm 4 m/S 747 mmHg 62%
    09:00 +22°C° 0 mm 4 m/S 747 mmHg 57%
    10:00 +23°C° 0 mm 4 m/S 747 mmHg 52%
    11:00 +25°C° 0 mm 5 m/S 747 mmHg 50%
    12:00 +26°C° 0 mm 5 m/S 746 mmHg 47%
    13:00 +26°C° 0 mm 5 m/S 746 mmHg 45%
    14:00 +26°C° 0 mm 5 m/S 746 mmHg 45%
    15:00 +26°C° 0 mm 5 m/S 746 mmHg 45%
    16:00 +26°C° 0 mm 5 m/S 746 mmHg 46%
    17:00 +25°C° 0 mm 4 m/S 746 mmHg 50%
    18:00 +23°C° 0 mm 4 m/S 746 mmHg 55%
    19:00 +22°C° 0 mm 3 m/S 746 mmHg 60%
    20:00 +21°C° 0 mm 3 m/S 747 mmHg 65%
    21:00 +20°C° 0 mm 2 m/S 747 mmHg 70%
    22:00 +19°C° 0 mm 2 m/S 747 mmHg 74%
    23:00 +18°C° 0 mm 2 m/S 747 mmHg 76%

    29 Juni, Samstag

    Zeit Temperatur Niederschläge Wind Luftdruck Luftfeuchtigkeit
    00:00 +18°C° 0 mm 2 m/S 747 mmHg 77%
    01:00 +18°C° 0 mm 1 m/S 747 mmHg 79%
    02:00 +18°C° 0 mm 1 m/S 747 mmHg 80%
    03:00 +16°C° 0 mm 1 m/S 747 mmHg 81%
    04:00 +16°C° 0 mm 1 m/S 747 mmHg 82%
    05:00 +17°C° 0 mm 2 m/S 747 mmHg 77%
    06:00 +18°C° 0 mm 2 m/S 747 mmHg 72%
    07:00 +19°C° 0 mm 2 m/S 747 mmHg 67%
    08:00 +21°C° 0 mm 2 m/S 747 mmHg 58%
    09:00 +22°C° 0 mm 3 m/S 748 mmHg 49%
    10:00 +24°C° 0 mm 3 m/S 748 mmHg 40%
    11:00 +25°C° 0 mm 3 m/S 747 mmHg 39%
    12:00 +26°C° 0 mm 3 m/S 747 mmHg 39%
    13:00 +27°C° 0 mm 4 m/S 747 mmHg 38%
    14:00 +27°C° 0 mm 3 m/S 747 mmHg 38%
    15:00 +27°C° 0 mm 3 m/S 746 mmHg 39%
    16:00 +27°C° 0 mm 3 m/S 746 mmHg 40%
    17:00 +25°C° 0 mm 3 m/S 746 mmHg 46%
    18:00 +24°C° 0 mm 2 m/S 746 mmHg 51%
    19:00 +23°C° 0 mm 2 m/S 746 mmHg 57%
    20:00 +21°C° 0 mm 2 m/S 746 mmHg 60%
    21:00 +21°C° 0 mm 1 m/S 746 mmHg 62%
    22:00 +20°C° 0 mm 1 m/S 747 mmHg 65%
    23:00 +19°C° 0 mm 1 m/S 747 mmHg 66%

    30 Juni, Sonntag

    Zeit Temperatur Niederschläge Wind Luftdruck Luftfeuchtigkeit
    00:00 +19°C° 0 mm 1 m/S 746 mmHg 67%
    01:00 +19°C° 0 mm 1 m/S 746 mmHg 68%
    02:00 +18°C° 0 mm 1 m/S 746 mmHg 69%
    03:00 +17°C° 0 mm 2 m/S 746 mmHg 71%
    04:00 +17°C° 0 mm 2 m/S 746 mmHg 72%
    05:00 +18°C° 0 mm 2 m/S 746 mmHg 69%
    06:00 +19°C° 0 mm 3 m/S 746 mmHg 65%
    07:00 +20°C° 0 mm 3 m/S 746 mmHg 62%
    08:00 +22°C° 0 mm 4 m/S 746 mmHg 58%
    09:00 +25°C° 0 mm 4 m/S 746 mmHg 53%
    10:00 +27°C° 0 mm 5 m/S 746 mmHg 49%
    11:00 +28°C° 0 mm 5 m/S 746 mmHg 46%
    12:00 +29°C° 0 mm 5 m/S 745 mmHg 44%
    13:00 +32°C° 0 mm 5 m/S 745 mmHg 42%
    14:00 +32°C° 0 mm 5 m/S 745 mmHg 42%
    15:00 +32°C° 0 mm 5 m/S 745 mmHg 42%
    16:00 +32°C° 0 mm 5 m/S 744 mmHg 43%
    17:00 +30°C° 0 mm 4 m/S 744 mmHg 48%
    18:00 +29°C° 0 mm 4 m/S 744 mmHg 53%
    19:00 +27°C° 0 mm 3 m/S 744 mmHg 58%
    20:00 +26°C° 0 mm 3 m/S 744 mmHg 62%
    21:00 +25°C° 0 mm 3 m/S 744 mmHg 65%
    22:00 +24°C° 0 mm 2 m/S 745 mmHg 69%
    23:00 +23°C° 0 mm 2 m/S 744 mmHg 71%
    Mehr zeigen